This is the latest recevied weather packets stored in our database for station/object KB7KFC-3. If no packets are shown the sender has not sent any weather packets the latest 10 day(s).
| Time | Temp. | Humidity | Pressure | Rain* | Wind** | Luminosity | Snow |
|---|---|---|---|---|---|---|---|
| 1777533724 | 21.11° C | 23% | 1012.6 hPa | 0 mm | - | - | - |
| 1777533544 | 21.11° C | 23% | 1012.4 hPa | 0 mm | - | - | - |
| 1777533363 | 21.11° C | 24% | 1012.5 hPa | 0 mm | - | - | - |
| 1777533183 | 21.11° C | 25% | 1012.5 hPa | 0 mm | - | - | - |
| 1777533003 | 21.11° C | 26% | 1012.4 hPa | 0 mm | - | - | - |
| 1777532825 | 21.11° C | 23% | 1012.5 hPa | 0 mm | - | - | - |
| 1777532645 | 21.11° C | 25% | 1012.5 hPa | 0 mm | - | - | - |
| 1777532465 | 21.11° C | 26% | 1012.5 hPa | 0 mm | - | - | - |
| 1777532283 | 21.11° C | 25% | 1012.4 hPa | 0 mm | - | - | - |
| 1777532103 | 21.11° C | 27% | 1012.3 hPa | 0 mm | - | - | - |
| 1777531923 | 21.11° C | 26% | 1012.3 hPa | 0 mm | - | - | - |
| 1777531743 | 21.67° C | 26% | 1012.2 hPa | 0 mm | - | - | - |
| 1777531563 | 21.67° C | 24% | 1012.3 hPa | 0 mm | - | - | - |
| 1777531383 | 21.67° C | 24% | 1012.2 hPa | 0 mm | - | - | - |
| 1777531203 | 21.67° C | 23% | 1012.1 hPa | 0 mm | - | - | - |
| 1777531023 | 21.67° C | 25% | 1012.1 hPa | 0 mm | - | - | - |
| 1777530843 | 21.67° C | 25% | 1012.1 hPa | 0 mm | - | - | - |
| 1777530663 | 21.67° C | 24% | 1012.1 hPa | 0 mm | - | - | - |
| 1777530484 | 21.67° C | 24% | 1012.2 hPa | 0 mm | - | - | - |
| 1777530305 | 22.22° C | 23% | 1012.3 hPa | 0 mm | - | - | - |
| 1777530124 | 22.22° C | 25% | 1012.4 hPa | 0 mm | - | - | - |
| 1777529944 | 22.22° C | 24% | 1012.4 hPa | 0 mm | - | - | - |
| 1777529763 | 22.22° C | 25% | 1012.5 hPa | 0 mm | - | - | - |
| 1777529585 | 22.22° C | 25% | 1012.5 hPa | 0 mm | - | - | - |
| 1777529405 | 22.22° C | 26% | 1012.6 hPa | 0 mm | - | - | - |
* Rain latest hour (hover to see other rain measurements)
** Current wind speed in m/s (hover to see current wind gust speed)